• In Uzbekistan
  • List of Countries
  • For 7 days
  • Water Temperature
  • Satellite Maps
  • Weather Map
  • Weather Widgets
  • user-avatar
    Login

    Hourly Weather Salzburg

    Today, 24 November, Friday

    Time Temperature Precipitation Wind Pressure Humidity
    00:00 -2°C° 0 mm 2 mps 625 mmHg 73%
    01:00 0°C° 0 mm 1 mps 625 mmHg 74%
    02:00 -2°C° 0 mm 2 mps 625 mmHg 74%
    03:00 -2°C° 0 mm 2 mps 625 mmHg 75%
    04:00 -2°C° 0 mm 2 mps 625 mmHg 76%
    05:00 -3°C° 0 mm 2 mps 625 mmHg 77%
    06:00 -3°C° 0 mm 2 mps 625 mmHg 78%
    07:00 -3°C° 0 mm 2 mps 625 mmHg 79%
    08:00 -2°C° 0 mm 2 mps 625 mmHg 78%
    09:00 +1°C° 0 mm 2 mps 625 mmHg 78%
    10:00 +2°C° 0 mm 2 mps 626 mmHg 77%
    11:00 +3°C° 0 mm 2 mps 626 mmHg 77%
    12:00 +5°C° 0 mm 1 mps 626 mmHg 77%
    13:00 +6°C° 0 mm 1 mps 626 mmHg 77%
    14:00 +5°C° 0 mm 1 mps 625 mmHg 79%
    15:00 +4°C° 0 mm 1 mps 625 mmHg 82%
    16:00 +1°C° 0 mm 2 mps 624 mmHg 84%
    17:00 +1°C° 0 mm 2 mps 624 mmHg 84%
    18:00 -1°C° 0 mm 2 mps 624 mmHg 83%
    19:00 -2°C° 0 mm 2 mps 624 mmHg 83%
    20:00 -2°C° 0 mm 2 mps 623 mmHg 82%
    21:00 -2°C° 0 mm 2 mps 623 mmHg 82%
    22:00 -3°C° 0 mm 2 mps 623 mmHg 82%
    23:00 -3°C° 0 mm 2 mps 623 mmHg 83%

    Tomorrow, 25 November, Saturday

    Time Temperature Precipitation Wind Pressure Humidity
    00:00 -3°C° 0 mm 2 mps 623 mmHg 83%
    01:00 -3°C° 0 mm 2 mps 622 mmHg 84%
    02:00 -3°C° 0 mm 2 mps 622 mmHg 84%
    03:00 -3°C° 0 mm 2 mps 621 mmHg 85%
    04:00 -3°C° 0 mm 2 mps 621 mmHg 86%
    05:00 -3°C° 0 mm 2 mps 620 mmHg 87%
    06:00 -3°C° 0 mm 2 mps 620 mmHg 88%
    07:00 -3°C° 0 mm 2 mps 619 mmHg 89%
    08:00 -2°C° 0 mm 3 mps 619 mmHg 88%
    09:00 -1°C° 0 mm 3 mps 619 mmHg 86%
    10:00 0°C° 0 mm 3 mps 618 mmHg 85%
    11:00 +1°C° 0 mm 3 mps 618 mmHg 85%
    12:00 +2°C° 0 mm 2 mps 618 mmHg 86%
    13:00 +3°C° 0 mm 2 mps 618 mmHg 87%
    14:00 +2°C° 0.7 mm 2 mps 618 mmHg 89%
    15:00 +2°C° 0.7 mm 2 mps 618 mmHg 92%
    16:00 +1°C° 0.7 mm 2 mps 618 mmHg 95%
    17:00 -1°C° 2.2 mm 2 mps 619 mmHg 95%
    18:00 -1°C° 2.2 mm 2 mps 619 mmHg 95%
    19:00 -2°C° 2.2 mm 2 mps 619 mmHg 96%
    20:00 -2°C° 1.4 mm 2 mps 619 mmHg 95%
    21:00 -3°C° 1.4 mm 2 mps 619 mmHg 95%
    22:00 -3°C° 1.4 mm 2 mps 619 mmHg 94%
    23:00 -4°C° 0.7 mm 2 mps 620 mmHg 94%

    Day after tomorrow, 26 November, Sunday

    Time Temperature Precipitation Wind Pressure Humidity
    00:00 -4°C° 0.7 mm 2 mps 620 mmHg 94%
    01:00 -5°C° 0.7 mm 2 mps 620 mmHg 94%
    02:00 -5°C° 0.8 mm 2 mps 620 mmHg 94%
    03:00 -5°C° 0.8 mm 2 mps 620 mmHg 95%
    04:00 -6°C° 0.8 mm 2 mps 621 mmHg 95%
    05:00 -6°C° 0.8 mm 2 mps 621 mmHg 95%
    06:00 -7°C° 0.8 mm 3 mps 622 mmHg 95%
    07:00 -7°C° 0.8 mm 3 mps 622 mmHg 95%
    08:00 -7°C° 0.9 mm 3 mps 623 mmHg 95%
    09:00 -7°C° 0.9 mm 3 mps 623 mmHg 95%
    10:00 -7°C° 0.9 mm 3 mps 624 mmHg 94%
    11:00 -7°C° 0.8 mm 3 mps 624 mmHg 94%
    12:00 -7°C° 0.8 mm 3 mps 624 mmHg 93%
    13:00 -7°C° 0.8 mm 3 mps 624 mmHg 92%
    14:00 -8°C° 0.4 mm 3 mps 625 mmHg 93%
    15:00 -8°C° 0.4 mm 3 mps 625 mmHg 93%
    16:00 -7°C° 0.4 mm 2 mps 625 mmHg 93%
    17:00 -8°C° 0.3 mm 2 mps 625 mmHg 94%
    18:00 -8°C° 0.3 mm 2 mps 626 mmHg 94%
    19:00 -8°C° 0.3 mm 2 mps 626 mmHg 95%
    20:00 -8°C° 0.3 mm 2 mps 626 mmHg 95%
    21:00 -9°C° 0.3 mm 2 mps 627 mmHg 95%
    22:00 -9°C° 0.3 mm 2 mps 627 mmHg 96%
    23:00 -9°C° 0.1 mm 2 mps 627 mmHg 96%

    27 November, Monday

    Time Temperature Precipitation Wind Pressure Humidity
    00:00 -10°C° 0.1 mm 2 mps 627 mmHg 96%
    01:00 -10°C° 0.1 mm 2 mps 627 mmHg 96%
    02:00 -12°C° 0.1 mm 2 mps 627 mmHg 95%
    03:00 -12°C° 0.1 mm 2 mps 627 mmHg 95%
    04:00 -13°C° 0.1 mm 2 mps 627 mmHg 94%
    05:00 -13°C° 0.1 mm 2 mps 627 mmHg 94%
    06:00 -13°C° 0.1 mm 2 mps 627 mmHg 93%
    07:00 -13°C° 0.1 mm 2 mps 627 mmHg 93%
    08:00 -12°C° 0 mm 2 mps 627 mmHg 92%
    09:00 -10°C° 0 mm 2 mps 628 mmHg 90%
    10:00 -9°C° 0 mm 2 mps 628 mmHg 89%
    11:00 -9°C° 0 mm 2 mps 628 mmHg 87%
    12:00 -8°C° 0 mm 2 mps 628 mmHg 85%
    13:00 -6°C° 0 mm 1 mps 628 mmHg 83%
    14:00 -7°C° 0 mm 1 mps 627 mmHg 85%
    15:00 -8°C° 0 mm 1 mps 626 mmHg 88%
    16:00 -9°C° 0 mm 1 mps 626 mmHg 91%
    17:00 -10°C° 0 mm 1 mps 626 mmHg 91%
    18:00 -11°C° 0 mm 1 mps 625 mmHg 91%
    19:00 -12°C° 0 mm 1 mps 625 mmHg 91%
    20:00 -14°C° 0 mm 2 mps 625 mmHg 89%
    21:00 -15°C° 0 mm 2 mps 625 mmHg 86%
    22:00 -15°C° 0 mm 2 mps 625 mmHg 84%
    23:00 -15°C° 0 mm 2 mps 625 mmHg 81%

    28 November, Tuesday

    Time Temperature Precipitation Wind Pressure Humidity
    00:00 -15°C° 0 mm 2 mps 624 mmHg 79%
    01:00 -14°C° 0 mm 2 mps 624 mmHg 77%
    02:00 -14°C° 0 mm 2 mps 624 mmHg 75%
    03:00 -14°C° 0 mm 2 mps 624 mmHg 74%
    04:00 -14°C° 0 mm 2 mps 623 mmHg 73%
    05:00 -13°C° 0 mm 2 mps 623 mmHg 72%
    06:00 -13°C° 0 mm 2 mps 623 mmHg 72%
    07:00 -13°C° 0 mm 2 mps 623 mmHg 72%
    08:00 -9°C° 0 mm 1 mps 623 mmHg 72%
    09:00 -7°C° 0 mm 1 mps 624 mmHg 72%
    10:00 -4°C° 0 mm 1 mps 624 mmHg 73%
    11:00 -3°C° 0 mm 1 mps 624 mmHg 73%
    12:00 -2°C° 0 mm 1 mps 624 mmHg 73%
    13:00 -2°C° 0 mm 0 mps 624 mmHg 74%
    14:00 -2°C° 0 mm 1 mps 623 mmHg 77%
    15:00 -2°C° 0 mm 1 mps 622 mmHg 80%
    16:00 -3°C° 0 mm 1 mps 622 mmHg 83%
    17:00 -4°C° 0 mm 1 mps 621 mmHg 83%
    18:00 -7°C° 0 mm 2 mps 621 mmHg 83%
    19:00 -8°C° 0 mm 2 mps 620 mmHg 83%
    20:00 -8°C° 0 mm 2 mps 620 mmHg 83%
    21:00 -9°C° 0 mm 2 mps 619 mmHg 82%
    22:00 -9°C° 0 mm 2 mps 619 mmHg 81%
    23:00 -9°C° 0 mm 2 mps 619 mmHg 81%

    29 November, Wednesday

    Time Temperature Precipitation Wind Pressure Humidity
    00:00 -9°C° 0 mm 2 mps 618 mmHg 80%
    01:00 -9°C° 0 mm 2 mps 618 mmHg 80%
    02:00 -9°C° 0 mm 2 mps 618 mmHg 80%
    03:00 -10°C° 0 mm 2 mps 617 mmHg 80%
    04:00 -10°C° 0 mm 2 mps 617 mmHg 80%
    05:00 -10°C° 0 mm 2 mps 617 mmHg 81%
    06:00 -10°C° 0 mm 2 mps 617 mmHg 81%
    07:00 -12°C° 0 mm 2 mps 616 mmHg 82%
    08:00 -9°C° 0 mm 2 mps 617 mmHg 81%
    09:00 -8°C° 0 mm 2 mps 617 mmHg 81%
    10:00 -7°C° 0 mm 2 mps 618 mmHg 81%
    11:00 -6°C° 0 mm 2 mps 617 mmHg 80%
    12:00 -3°C° 0 mm 1 mps 617 mmHg 80%
    13:00 -2°C° 0 mm 1 mps 617 mmHg 80%
    14:00 -3°C° 0 mm 1 mps 617 mmHg 83%
    15:00 -3°C° 0 mm 1 mps 616 mmHg 87%
    16:00 -4°C° 0 mm 1 mps 616 mmHg 90%
    17:00 -6°C° 0.2 mm 1 mps 616 mmHg 90%
    18:00 -6°C° 0.2 mm 1 mps 616 mmHg 91%
    19:00 -6°C° 0.2 mm 1 mps 616 mmHg 91%
    20:00 -6°C° 0.5 mm 1 mps 616 mmHg 92%
    21:00 -6°C° 0.5 mm 1 mps 616 mmHg 93%
    22:00 -6°C° 0.5 mm 1 mps 616 mmHg 94%
    23:00 -6°C° 0.5 mm 1 mps 616 mmHg 94%
    Show more